Regional Weather Roundup
Issued by NWS

Home | Current Version | Previous Version | Graphics & Text | Print | Product List | Glossary On
Versions: 1 2 3 4 5 6 7 8 9 10 11 12 13 14 15 16 17 18 19 20 21 22 23 24 25 26 27 28 29 30 31 32 33 34 35 36 37 38 39 40 41 42 43 44 45 46 47 48 49 50
123
ASUS45 KABQ 230701
RWRNM
NEW MEXICO REGIONAL WEATHER ROUNDUP
NATIONAL WEATHER SERVICE ALBUQUERQUE NM
1200 AM MST THU FEB 23 2017

NOTE: "FAIR" MEANS FEW OR NO CLOUDS BELOW 12,000 FEET AGL WITH NO
       SIGNIFICANT WEATHER OR OBSTRUCTIONS TO VISION.

      THIS PRODUCT IS RELEASED AS TWO VERSIONS.  ONE VERSION NEAR
      THE TOP OF THE HOUR CONTAINING PRELIMINARY DATA FROM ALBUQUERQUE
      AND OTHER STATIONS.  A FINAL VERSION WITH ADDITIONAL DATA IS
      ISSUED ABOUT 10 MINUTES AFTER THE HOUR.

NMZ501-503-504-510>518-230800-
NORTHWEST PLATEAU/NORTHCENTRAL MOUNTAINS

CITY           SKY/WX    TMP DP  RH WIND       PRES   REMARKS
FARMINGTON     FAIR      44  18  35 SW8       29.70F
LOS ALAMOS     FAIR      46  21  37 S14G22    29.83F
SANTA FE       CLOUDY    47  25  42 SE7       29.83F
TAOS             N/A     43  25  49 E5        29.82F
ANGEL FIRE     CLOUDY    33  31  93 CALM      29.85F

$$
NMZ402-403-502-505>509-230800-
WESTCENTRAL MOUNTAINS/SOUTHWEST MOUNTAINS

CITY           SKY/WX    TMP DP  RH WIND       PRES   REMARKS
GALLUP         FAIR      44  20  38 S16       29.78F
GRANTS         FAIR      48  28  46 S15       29.84F
SILVER CITY    FAIR      48  37  64 NW12      29.90F

$$
NMZ407-409-411-412-230800-
SOUTHERN DESERTS

CITY           SKY/WX    TMP DP  RH WIND       PRES   REMARKS
DEMING         FAIR      52  37  56 S5        29.87F
LAS CRUCES     FAIR      53  32  45 W8        29.87F
HOLLOMAN AFB   FAIR      54  31  40 S8        29.86R
ALAMOGORDO     FAIR      57  32  38 S10       29.84R
T OR C         FAIR      60  32  34 W12       29.83F

$$
NMZ519>523-230800-
CENTRAL VALLEYS/CENTRAL HIGHLANDS

CITY           SKY/WX    TMP DP  RH WIND       PRES   REMARKS
ALBUQUERQUE    MOCLDY    47  28  47 SE6       29.83F
DOUBLE EAGLE   CLOUDY    49  25  39 SW15      29.83S
MORIARTY ARPT  FAIR      44  29  57 CALM      29.85F
CLINES CORNERS FAIR      37  27  67 W8        29.87F WCI  31
BELEN          FAIR      48  30  49 CALM      29.83F
SOCORRO        FAIR      56  30  37 SW7       29.81S

$$
NMZ524>526-539-540-230800-
SOUTHCENTRAL MOUNTAINS

CITY           SKY/WX    TMP DP  RH WIND       PRES   REMARKS
RUIDOSO        NOT AVBL

$$
NMZ527>531-230800-
NORTHEAST HIGHLANDS/NORTHEAST PLAINS

CITY           SKY/WX    TMP DP  RH WIND       PRES   REMARKS
RATON          FAIR      41  30  65 CALM      29.78F
CLAYTON        FAIR      52  35  52 W18G30    29.73F

$$
NMZ532>537-230800-
EASTCENTRAL PLAINS

CITY           SKY/WX    TMP DP  RH WIND       PRES   REMARKS
TUCUMCARI      FAIR      46  32  58 SW5       29.75S
CANNON AFB     FAIR      48  32  54 N3        29.77F
CLOVIS AIRPORT FAIR      45  32  61 W8        29.77F

$$
NMZ028-029-538-230800-
SOUTHEAST PLAINS

CITY           SKY/WX    TMP DP  RH WIND       PRES   REMARKS
ROSWELL        FAIR      53  29  39 MISG        N/A
ARTESIA        FAIR      54  30  40 SW10      29.77F
CARLSBAD       FAIR      52  24  33 SW5       29.76F
HOBBS          FAIR      50  23  34 W8        29.81F


$$




USA.gov is the U.S. government's official web portal to all federal, state and local government web resources and services.